Regional Weather Roundup
Issued by NWS

Home | Current Version | Previous Version | Graphics & Text | Print | Product List | Glossary On
Versions: 1 2 3 4 5 6 7 8 9 10 11 12 13 14 15 16 17 18 19 20 21 22 23 24 25 26 27 28 29 30 31 32 33 34 35 36 37 38 39 40 41 42 43 44 45 46 47 48 49 50
000
ASUS43 KLOT 031221
RWRIL

ILLINOIS REGIONAL WEATHER ROUNDUP
NATIONAL WEATHER SERVICE CHICAGO/ROMEOVILLE IL
700 AM CDT THU SEP 03 2015

NOTE: "FAIR" INDICATES FEW OR NO CLOUDS BELOW 12,000 FEET WITH NO
SIGNIFICANT WEATHER AND/OR OBSTRUCTIONS TO VISIBILITY.

* THESE STATIONS ARE NOT UNDER NWS QUALITY CONTROL. THEY ALSO MAY NOT
  REPORT WEATHER SUCH AS PRECIPITATION OR FOG.

ILZ001-002-007-009-015-016-024-031300-
NORTHWEST ILLINOIS

CITY           SKY/WX    TMP DP  RH WIND       PRES   REMARKS
MOLINE         CLEAR     72  67  84 CALM      29.96R
6HR MIN TEMP:  71; 6HR MAX TEMP:  76;

STERLING*      CLEAR     72  70  94 CALM      29.94S
SAVANNA*       CLEAR     69  67  92 S3        29.95R FOG
$$

ILZ003-004-008-010-011-017-018-031300-
NORTH CENTRAL ILLINOIS

CITY           SKY/WX    TMP DP  RH WIND       PRES   REMARKS
ROCKFORD       PTCLDY    71  67  87 S6        29.97R
6HR MIN TEMP:  70; 6HR MAX TEMP:  74;

FREEPORT*      CLEAR     70  67  92 SW8       29.97R
ROCHELLE*      CLEAR     66  66  97 CALM      29.97S FOG
DE KALB*       CLEAR     67  66  97 CALM      29.98R FOG
PERU*          CLEAR     69  66  90 S8        29.98S
$$

ILZ005-006-012>014-019>023-031300-
NORTHEAST ILLINOIS

CITY           SKY/WX    TMP DP  RH WIND       PRES   REMARKS
CHICAGO-OHARE  PTCLDY    73  68  84 SW6       29.95S
6HR MIN TEMP:  72; 6HR MAX TEMP:  76;

CHICAGO-MIDWAY PTCLDY    76  66  71 SW7       29.96S
6HR MIN TEMP:  75; 6HR MAX TEMP:  80; 6HR PCP: TRACE;

AURORA         CLEAR     71  67  87 CALM      29.98R FOG
6HR MIN TEMP:  69; 6HR MAX TEMP:  74;

LANSING*       CLEAR     71  67  88 SW3       29.98S
JOLIET*        CLEAR     70  68  93 CALM      29.98R
WAUKEGAN       PTCLDY    72  68  87 SW7       29.94R
6HR MIN TEMP:  71; 6HR MAX TEMP:  75;

DUPAGE AIRPORT CLEAR     69  66  90 S6        29.96S
6HR MIN TEMP:  68; 6HR MAX TEMP:  73;

KANKAKEE*      CLEAR     68  67  96 CALM      30.00S FOG
WHEELING       CLEAR     74  67  78 S5        29.96S
6HR MIN TEMP:  73; 6HR MAX TEMP:  79;

MORRIS*        CLEAR     68  65  92 SW6       29.96S
ROMEOVILLE*    CLEAR     67  65  94 S6        29.98R FOG
NORTHERLY ISL    N/A     76  66  71 SW6         N/A
$$

LMZ740>746-031300-
SOUTHERN LAKE MICHIGAN

STATION/POSITION SKY/WX   TEMP    WIND        PRES    VSBY  WAVE
                          AIR SEA DIR/SP/G                  HT/PER
                          (F)     (DEG/KT/KT) (MB)    (MI)  (FT/S)
SOUTHERN BUOY              73 71  210/ 10/ 12 1012.8R         1
WILMETTE HARBOR            67 60   40/  8/  8   N/A           0
HARRISON CRIB              77     220/ 12/ 14   N/A
BURNHAM HARBOR             76     250/  2/  8   N/A
CALUMET HARBOR             74     210/  4/  6   N/A
BURNS HARBOR               74     180/  7/ 10 1015.2S
MICHIGAN CITY              74     180/ 10/ 12   N/A
MICHIGAN CITY 6N           74 73  220/  8/ 10   N/A           1/ 2
ST. JOSEPH                 75 73  250/  8/ 10   N/A           1/ 2
$$

ILZ025>027-034>036-040-047-049-050-058-095>099-031300-
WEST-CENTRAL ILLINOIS

CITY           SKY/WX    TMP DP  RH WIND       PRES   REMARKS
QUINCY         PTCLDY    71  67  87 S6        29.99R
GALESBURG*     CLEAR     68  66  92 S3        29.99R
MACOMB*        PTCLDY    69  67  94 CALM      30.01R
JACKSONVILLE*  PTCLDY    74  70  88 S7        30.00R
PITTSFIELD*    PTCLDY    73  69  87 S3        30.01R
$$

ILZ028>032-037-038-041>044-048-051>054-059>061-031300-
CENTRAL ILLINOIS

CITY           SKY/WX    TMP DP  RH WIND       PRES   REMARKS
PONTIAC        CLEAR     67  67  99 S3        30.00S FOG
BLOOMINGTON    PTCLDY    69  69 100 S7        30.03R
DECATUR        CLEAR     71  66  84 SW6       30.02R
PEORIA         PTCLDY    71  66  84 S3        29.99R
6HR MIN TEMP:  71; 6HR MAX TEMP:  76;

LACON*         CLEAR     69  66  89 CALM      29.98R
LINCOLN*       CLEAR     68  65  92 S3        30.00S FOG
SPRINGFIELD    CLOUDY    73  69  87 SW3       30.01R
6HR MIN TEMP:  69; 6HR MAX TEMP:  73;

TAYLORVILLE    CLEAR     68  68 100 S5        30.02R FOG
$$

ILZ033-039-045-046-055>057-062-063-031300-
EAST-CENTRAL ILLINOIS

CITY           SKY/WX    TMP DP  RH WIND       PRES   REMARKS
CHAMPAIGN      CLEAR     68  66  93 SW3       30.03R FOG
RANTOUL*       CLEAR     70  67  91 CALM      30.02R
MATTOON        CLEAR     72  67  84 SW6       30.02R
PARIS*         CLEAR     66  66  98 CALM      30.04R FOG
$$

ILZ079-100>102-031300-
SOUTHWEST ILLINOIS

CITY           SKY/WX    TMP DP  RH WIND       PRES   REMARKS
ALTON          MOCLDY    68  68 100 S6        30.01S FOG
BELLEVILLE     PTCLDY    70  70 100 CALM      30.01R
CAHOKIA*       CLEAR     72  68  87 S5        30.01R
SPARTA*        CLEAR     70  68  94 CALM      30.04S
$$

ILZ064>066-069>071-074>076-080>082-084>086-088>090-092>094-031300-
SOUTH-CENTRAL ILLINOIS

CITY           SKY/WX    TMP DP  RH WIND       PRES   REMARKS
CARBONDALE     CLEAR     68  66  93 CALM      30.04R FOG
6HR MIN TEMP:  66; 6HR MAX TEMP:  69;

CAIRO*           N/A     64  64 100 CALM      30.03R FOG
EFFINGHAM*     CLEAR     67  64  93 CALM      30.04S FOG
MARION         CLEAR     70  68  94 SE5       30.04R
MT. VERNON     CLEAR     66  63  88 CALM      30.05R
CENTRALIA*     CLEAR     69  68  98 CALM      30.03R FOG
SALEM*         CLEAR     68  66  92 CALM      30.03R FOG
METROPOLIS*    CLEAR     66  66 100 CALM      30.04R FOG
$$

ILZ067-068-072-073-078-083-087-091-031300-
SOUTHEAST ILLINOIS

CITY           SKY/WX    TMP DP  RH WIND       PRES   REMARKS
LAWRENCEVILLE  FOG       68  67  96 CALM      30.04R VSB 1
FLORA*         CLEAR     67  65  95 CALM      30.04R FOG
FAIRFIELD*     FOG       67  67  99 CALM      30.03R VSB 1/2
HARRISBURG*    FOG       65  65 100 CALM      30.04R VSB 3/4
ROBINSON*      CLEAR     66  65  97 CALM      30.05R FOG
CARMI*         CLEAR     64  64  99 CALM      30.03R
$$

ABBREVIATIONS USED IN REMARKS
   TC - TEMPERATURE IN CELSIUS
  WCI - WIND CHILL INDEX
   HX - HEAT INDEX
  VSB - VISIBILITY
$$



USA.gov is the U.S. government's official web portal to all federal, state and local government web resources and services.